Regional Weather Roundup
Issued by NWS Cleveland, OH

Home | Current Version | Previous Version | Graphics & Text | Print | Product List | Glossary Off
Versions: 1 2 3 4 5 6 7 8 9 10 11 12 13 14 15 16 17 18 19 20 21 22 23 24 25 26 27 28 29 30 31 32 33 34 35 36 37 38 39 40 41 42 43 44 45 46 47 48 49 50

000
ASUS41 KCLE 231612
RWRCLE
OHIO REGIONAL WEATHER ROUNDUP
NATIONAL WEATHER SERVICE WILMINGTON, OH
1200 PM EDT WED AUG 23 2017

NOTE: "FAIR" INDICATES FEW OR NO CLOUDS BELOW 12,000 FEET WITH NO
SIGNIFICANT WEATHER AND/OR OBSTRUCTIONS TO VISIBILITY.

OHZ001>008-015>018-024>027-034-035-043-044-231700-
   NORTHWEST OHIO

CITY           SKY/WX    TMP DP  RH WIND       PRES   REMARKS
DEFIANCE       FAIR      73  53  49 NW14G21   30.01R
FINDLAY        FAIR      73  54  51 NW10      30.00S
TOLEDO EXPRESS FAIR      72  55  55 W9G18     29.98S
TOLEDO EXEC    FAIR      74  55  51 W14G21    29.99S
LIMA           FAIR      71  54  54 W10       30.02S
$$

OHZ009>014-019>023-028>033-038-089-231700-
   NORTHEAST OHIO

CITY           SKY/WX    TMP DP  RH WIND       PRES   REMARKS
CLE-HOPKINS    PTSUNNY   72  55  56 NW9       29.98S
CLE-LAKEFRONT  FAIR      73  54  51 W13       29.96R
CUY CO. ARPT   MOSUNNY   73  54  49 SW14      29.97S
LORAIN-ELYRIA  FAIR      71  54  54 NW12      29.99R
ASHTABULA      FAIR      72  56  57 W14       29.96R
AKRON-CANTON   FAIR      74  52  46 VRB5      29.99R
WOOSTER        FAIR      72  54  53 W10G18    30.00S
MANSFIELD      FAIR      71  55  56 W9        30.01S
YOUNGSTOWN     PTSUNNY   71  54  54 W13       29.97S
$$

OHZ042-051>053-060>062-070>072-077>081-231700-
  SOUTHWEST OHIO

CITY           SKY/WX    TMP DP  RH WIND       PRES   REMARKS
CINC-COVINGTON FAIR      74  54  49 W3        30.05R
CINC-LUNKEN    FAIR      77  55  46 VRB6      30.05R
HAMILTON       FAIR      74  56  53 N6        30.05S
DAYTON         FAIR      73  55  53 N7        30.05S
WRIGHT-PAT AFB MOSUNNY   73  55  53 W8        30.04R
DAYTON GENERAL PTSUNNY   74  55  51 W8        30.04S
WILMINGTON     FAIR      73  55  53 NE6       30.04R
$$

OHZ036-037-039>041-045>050-054>059-063>069-073>076-082>088-231700-
  CENTRAL AND SOUTHEAST OHIO

CITY           SKY/WX    TMP DP  RH WIND       PRES   REMARKS
COLUMBUS       FAIR      75  53  46 N3        30.01S
OSU AIRPORT    PTSUNNY   73  54  51 NW9       30.02R
BOLTON FIELD   MOSUNNY   72  55  56 NW8       30.03S
RICKENBACK AFB FAIR      72  52  49 N7        30.01S
NEWARK         FAIR      74  49  41 VRB5      30.01S
MARION         FAIR      73  52  47 N8        30.01S
LANCASTER      FAIR      73  57  57 N6        30.02S
ZANESVILLE     FAIR      74  53  48 NW8       30.01R
NEW PHILLY     FAIR      73  54  51 W9        30.00S
$$



USA.gov is the U.S. government's official web portal to all federal, state and local government web resources and services.